Theta_e
318 316 314 311 312 310 309 309 310 309 309 307 307 308 309 306 304 305 302 302 303 302
315 315 314 314 310 312 311 312 310 310 307 306 304 308 308 305 303 303 303 304 304 302
316 315 314 311 309 308 310 310 310 308 307 305 303 305 308 305 303 303 303 307 303 302
316 315 312 310 310 310 308 309 309 308 306 306 302 304 306 306 306 304 304 303 304 305
315 314 311 310 311 310 308 310 310 310 307 307 305 305 306 306 310 304 303 304 304 304
314 312 311 310 310 310 309 309 310 308 306 306 305 306 306 307 306 305 305 305 304 306
314 313 312 310 311 311 311 309 309 308 307 308 305 306 307 307 305 304 306 308 308 308
314 314 313 313 313 312 312 312 313 311 308 307 306 307 305 305 305 303 302 304 307 308
315 314 314 313 313 312 311 311 310 311 311 309 308 304 307 305 302 303 302 302 305 309
316 315 316 316 314 312 309 309 307 308 309 308 308 304 305 306 302 303 303 305 306 309
316 316 316 314 313 312 309 309 308 309 307 305 307 306 304 305 302 304 306 308 308 305
317 316 316 315 312 312 309 309 309 309 307 309 307 306 303 304 305 307 305 299 304 298
318 317 315 314 313 311 309 309 311 309 308 308 306 302 303 306 305 301 299 296 296 301
319 317 316 314 314 311 309 308 309 306 307 307 307 307 304 300 299 299 298 298 296 294
Wind_Speed
8 6 6 6 5 5 4 5 6 6 5 3 4 4 5 4 3 4 1 3 4 2
7 7 6 6 5 6 7 5 7 6 6 4 2 5 6 4 3 3 3 4 1 1
5 5 5 6 6 8 6 6 6 6 6 4 2 1 5 4 3 3 2 3 2 2
5 7 6 5 5 6 6 7 6 6 6 5 4 3 4 4 5 4 4 2 2 5
7 8 6 5 5 6 6 3 6 5 5 5 5 4 3 4 3 3 2 3 3 5
7 8 7 7 7 7 6 5 4 6 4 3 6 5 4 3 2 2 3 4 5 6
9 8 7 7 7 7 7 7 5 5 6 5 6 6 6 6 6 4 4 4 4 6
8 8 8 7 7 7 7 7 6 6 5 5 5 4 6 5 4 3 5 6 6 6
9 10 8 8 8 7 7 6 5 6 6 6 4 8 5 6 3 4 5 6 7 7
12 10 8 8 8 7 7 5 3 2 4 4 5 10 8 7 4 5 6 7 7 8
12 10 7 6 7 6 5 6 4 4 2 1 2 10 10 8 3 4 7 7 7 5
13 13 11 9 7 5 5 4 4 3 4 3 5 3 4 4 2 5 5 4 7 7
13 11 13 9 7 5 5 5 4 4 5 7 5 6 9 5 2 1 2 1 4 7
12 8 9 8 5 6 5 5 4 5 3 6 6 6 7 5 1 2 2 2 4 3
Wind_Direction
144 149 152 165 170 167 157 156 156 153 138 125 94 137 118 119 148 140 67 14 26 6
149 145 161 163 135 117 132 154 162 145 137 128 67 141 143 136 150 162 171 237 309 3
158 157 150 140 132 131 148 150 143 137 139 150 168 185 124 154 200 185 215 172 219 276
156 132 135 137 126 135 123 135 148 157 163 172 177 146 127 170 225 219 223 279 244 264
152 138 147 157 136 129 134 154 177 180 170 170 149 157 178 225 310 185 307 283 282 285
155 144 163 167 151 145 156 193 212 157 155 175 158 167 220 236 273 288 265 277 284 278
162 157 167 165 155 160 181 199 194 185 188 196 177 183 212 221 239 257 267 279 284 288
152 156 160 161 165 180 190 204 200 182 203 193 177 205 215 222 217 244 290 299 298 285
148 161 168 164 175 185 204 213 199 197 191 198 205 160 156 157 239 270 272 283 283 272
162 171 181 173 172 185 191 181 189 180 204 207 195 189 194 212 213 248 269 265 260 273
162 168 170 172 184 185 173 174 180 209 218 207 245 201 213 226 261 290 285 294 278 115
172 169 161 185 188 184 162 172 184 194 204 223 239 311 156 152 275 294 3 22 94 116
172 165 180 162 180 182 161 176 179 211 208 214 193 175 161 168 207 340 140 111 115 160
157 149 180 158 151 174 173 166 204 212 246 231 167 193 190 213 200 168 330 169 211 213